Weather History for Douglas, WY

Change the Weather History Date:

Saturday, November 24, 2012

  Actual Average Record
Temperature  
Mean Temperature 47 °F 29 °F  
Max Temperature 61 °F 42 °F 62 °F (2011)
Min Temperature 32 °F 16 °F -3 °F (2010)
Degree Days  
Heating Degree Days 18 36  
Month to date heating degree days 552 732  
Since 1 July heating degree days 1322 1599  
Cooling Degree Days 0 0  
Month to date cooling degree days 0 0  
Year to date cooling degree days 831 486  
Moisture  
Dew Point 16 °F    
Average Humidity 36    
Maximum Humidity 56    
Minimum Humidity 15    
Precipitation  
Precipitation 0.00 in 0.02 in 0.04 in (2001)
Month to date precipitation 0.02 0.55  
Year to date precipitation 5.10 12.89  
Sea Level Pressure  
Sea Level Pressure 29.97 in    
Wind  
Wind Speed 9 mph (NW)    
Max Wind Speed 28 mph    
Max Gust Speed 37 mph    
Visibility 10 miles    
Events      
T = Trace of Precipitation, MM = Missing Value Source: NWS Daily Summary

Daily Weather History Graph

Daily Weather History Graph

Search for Another Location

Airport:

Trip Planner

Search our weather history database for the weather conditions in past years. The results will help you decide how hot, cold, wet, or windy it might be!

Date:

Astronomy

Nov. 24, 2012 Rise Set
Actual Time 7:05 AM MST 4:31 PM MST
Civil Twilight 6:33 AM MST 5:02 PM MST
Nautical Twilight 5:59 AM MST 5:37 PM MST
Astronomical Twilight 5:25 AM MST 6:11 PM MST
Moon 2:20 PM MST (11/24) 3:20 AM MST (11/24)
Length of Visible Light 10h 28m
Length of Day
9h 26m
Waxing Gibbous, 87% of the Moon is Illuminated
Nov 24
Waxing Gibbous
Nov 28
Full
Dec 6
Last Quarter
Dec 13
New
Dec 19
First Quarter

Hourly Weather History & Observations

Time (MST) Temp. Windchill Dew Point Humidity Pressure Visibility Wind Dir Wind Speed Gust Speed Precip Events Conditions
12:53 AM 35.1 °F - 16.0 °F 46% 30.12 in 10.0 mi Calm Calm - N/A   Clear
1:53 AM 41.0 °F 38.0 °F 17.1 °F 38% 30.08 in 10.0 mi NNW 4.6 mph - N/A   Clear
2:53 AM 42.1 °F 36.6 °F 18.0 °F 38% 30.05 in 10.0 mi NNW 9.2 mph - N/A   Clear
3:53 AM 44.1 °F 38.6 °F 18.0 °F 35% 30.02 in 10.0 mi NNW 10.4 mph - N/A   Clear
4:53 AM 43.0 °F 37.7 °F 18.0 °F 37% 30.03 in 10.0 mi WNW 9.2 mph - N/A   Clear
5:53 AM 43.0 °F 37.7 °F 18.0 °F 37% 30.01 in 10.0 mi WNW 9.2 mph - N/A   Clear
6:53 AM 48.0 °F - 16.0 °F 28% 29.99 in 10.0 mi NW 8.1 mph - N/A   Clear
7:17 AM 51.8 °F - 15.8 °F 24% 29.97 in 10.0 mi West 24.2 mph 32.2 mph N/A   Clear
7:53 AM 51.1 °F - 15.1 °F 24% 29.98 in 10.0 mi WNW 13.8 mph - N/A   Clear
8:53 AM 50.0 °F - 16.0 °F 26% 29.99 in 10.0 mi NW 10.4 mph - N/A   Clear
9:53 AM 54.0 °F - 15.1 °F 22% 29.97 in 10.0 mi NW 8.1 mph - N/A   Partly Cloudy
10:53 AM 57.0 °F - 14.0 °F 18% 29.94 in 10.0 mi NW 19.6 mph 27.6 mph N/A   Mostly Cloudy
11:53 AM 60.1 °F - 14.0 °F 16% 29.89 in 10.0 mi WNW 23.0 mph - N/A   Clear
12:53 PM 59.0 °F - 12.9 °F 16% 29.88 in 10.0 mi WNW 24.2 mph - N/A   Clear
1:53 PM 57.0 °F - 12.9 °F 18% 29.87 in 10.0 mi WNW 21.9 mph - N/A   Clear
2:53 PM 57.0 °F - 12.9 °F 18% 29.85 in 10.0 mi WNW 21.9 mph 28.8 mph N/A   Clear
3:53 PM 52.0 °F - 14.0 °F 22% 29.88 in 10.0 mi West 5.8 mph - N/A   Clear
4:53 PM 46.9 °F - 14.0 °F 27% 29.91 in 10.0 mi North 8.1 mph - N/A   Clear
5:53 PM 43.0 °F 37.7 °F 17.1 °F 35% 29.94 in 10.0 mi NNE 9.2 mph - N/A   Clear
6:53 PM 37.9 °F - 19.0 °F 47% 29.95 in 10.0 mi Calm Calm - N/A   Clear
7:53 PM 36.0 °F - 19.0 °F 50% 29.96 in 10.0 mi Calm Calm - N/A   Partly Cloudy
8:53 PM 36.0 °F - 19.9 °F 52% 29.96 in 10.0 mi Calm Calm - N/A   Mostly Cloudy
9:53 PM 34.0 °F - 19.0 °F 54% 29.97 in 10.0 mi Calm Calm - N/A   Overcast
10:53 PM 33.1 °F - 19.0 °F 56% 29.97 in 10.0 mi Calm Calm - N/A   Overcast
11:53 PM 32.0 °F - 19.9 °F 61% 29.95 in 10.0 mi Calm Calm - N/A   Mostly Cloudy